User: anonymous   Login
Location: Unspecified
(0.0000°N, 0.0000°E)
Time: 03:26:01
(UTC+00:00)
Language:

MERIDIAN 6 - Orbit

View from above orbital plane
View from above orbital plane
View from above satellite
View from above satellite

Ground track
Ground track

The orbit data is extracted from the following two-line orbital elements,

1 38995U 12063A   20295.84213810 +.00000148 +00000-0 +00000-0 0  9994
2 38995 065.3178 218.6412 6463399 260.1787 026.4392 02.00577508058149
Epoch (UTC): 21 October 2020 20:12:40
Eccentricity: 0.6463399
inclination: 65.3178°
perigee height: 3015 km
apogee height: 37347 km
right ascension of ascending node: 218.6412°
argument of perigee: 260.1787°
revolutions per day: 2.00577508
mean anomaly at epoch: 26.4392°
orbit number at epoch: 5814

The dashed part of the orbit path shows where the satellite is in the earth's shadow,  

DLR